sat.trackr.live / text

‹ back to catalog

UMBRA-11

NORAD 66748 · 2025-276CL

PAYLOAD ACTIVE UNKNOWN

§ Identity

Operator
Country
US
Launch date
2025-11-28
Launch site
AFWTR
Launch vehicle
Mass (kg)
RCS (m²)

External: N2YO · Heavens-Above · Gunter

§ Orbital elements

Epoch: 2026-09-20T15:21:35.228448Z

Period
94.10 min
Inclination
97.4119°
Eccentricity
0.0001595
Mean motion
15.30250822 rev/d
Perigee alt
474.0 km
Apogee alt
476.2 km
Semi-major
6,853.2 km
B*
5.4247e-4
RAAN
337.8828°
Arg perigee
24.1827°
Mean anomaly
335.9488°
Rev number
4,507

§ Raw data

UMBRA-111 66748U 25276CL  26263.63999107  .00015816  00000+0  54247-3 0  99912 66748  97.4119 337.8828 0001595  24.1827 335.9488 15.30250822 45071

JSON: /api/v1/satellites/66748 · /tle

For live sub-satellite position, see the globe view (requires WebGL).

§ Visibility from observer

Set your observer location to see the next 7 days of passes ≥ 10°. The values pass through the URL so the page stays shareable.

No JS? Fill the form by hand. The geolocation button needs JavaScript.